Madison, SD

12:38 AM CDT on April 23, 2017 (GMT -0500)
Madison Municipal

Weather History for KMDS - November, 2013

Change the Weather History Date:

Thursday, November 28, 2013

  Actual Average Record
Temperature  
Mean Temperature 17 °F -  
Max Temperature 24 °F 31 °F 50 °F (2011)
Min Temperature 10 °F 12 °F 10 °F (2013)
Degree Days  
Heating Degree Days 48    
Moisture  
Dew Point 15 °F    
Average Humidity 83    
Maximum Humidity 100    
Minimum Humidity 68    
Precipitation  
Precipitation 0.00 in - - ()
Sea Level Pressure  
Sea Level Pressure 30.30 in    
Wind  
Wind Speed 13 mph (NNW)    
Max Wind Speed 24 mph    
Max Gust Speed 34 mph    
Visibility 10 miles    
Events      
Averages and records for this station are not official NWS values.
T = Trace of Precipitation, MM = Missing Value Source: NWS Daily Summary

Daily Weather History Graph

Daily Weather History Graph

Search for Another Location

Airport or City:

Trip Planner

Search our weather history database for the weather conditions in past years. The results will help you decide how hot, cold, wet, or windy it might be!

Date:

Astronomy

Nov. 28, 2013 Rise Set
Actual Time 7:40 AM CST 4:52 PM CST
Civil Twilight 7:07 AM CST 5:24 PM CST
Nautical Twilight 6:31 AM CST 6:00 PM CST
Astronomical Twilight 5:57 AM CST 6:35 PM CST
Moon 2:34 AM CST (11/28) 2:10 PM CST (11/28)
Length of Visible Light 10h 17m
Length of Day
9h 12m
Waning Crescent, 22% of the Moon is Illuminated
Nov 28
Waning Crescent
Dec 2
New
Dec 9
First Quarter
Dec 17
Full
Dec 25
Last Quarter

Hourly Weather History & Observations

Time (CST) Temp. Windchill Dew Point Humidity Pressure Visibility Wind Dir Wind Speed Gust Speed Precip Events Conditions
12:10 AM 21.2 °F 6.4 °F 17.6 °F 86% 30.04 in 10.0 mi NNW 18.4 mph 24.2 mph N/A   Clear
12:30 AM 19.4 °F 6.0 °F 17.6 °F 93% 30.05 in 10.0 mi NNW 13.8 mph 20.7 mph N/A   Clear
12:50 AM 19.4 °F 5.0 °F 17.6 °F 93% 30.05 in 10.0 mi NNW 16.1 mph 19.6 mph N/A   Clear
1:10 AM 17.6 °F 2.2 °F 17.6 °F 100% 30.06 in 10.0 mi NNW 17.3 mph - N/A   Clear
1:30 AM 17.6 °F 2.2 °F 15.8 °F 93% 30.08 in 10.0 mi NNW 17.3 mph 25.3 mph N/A   Clear
1:50 AM 17.6 °F 1.3 °F 15.8 °F 93% 30.08 in 10.0 mi NNW 19.6 mph 25.3 mph N/A   Clear
2:10 AM 17.6 °F 1.7 °F 15.8 °F 93% 30.10 in 10.0 mi NNW 18.4 mph 24.2 mph N/A   Clear
2:30 AM 17.6 °F 1.7 °F 17.6 °F 100% 30.12 in 10.0 mi NNW 18.4 mph 25.3 mph N/A   Clear
2:50 AM 17.6 °F 1.7 °F 17.6 °F 100% 30.12 in 10.0 mi NNW 18.4 mph 24.2 mph N/A   Mostly Cloudy
3:10 AM 19.4 °F 3.2 °F 17.6 °F 93% 30.13 in 10.0 mi NNW 20.7 mph 25.3 mph N/A   Overcast
3:30 AM 21.2 °F 5.6 °F 17.6 °F 86% 30.14 in 10.0 mi NNW 20.7 mph 26.5 mph N/A   Overcast
3:50 AM 21.2 °F 6.0 °F 17.6 °F 86% 30.15 in 10.0 mi NNW 19.6 mph 26.5 mph N/A   Overcast
4:10 AM 21.2 °F 4.5 °F 17.6 °F 86% 30.16 in 10.0 mi North 24.2 mph 29.9 mph N/A   Overcast
4:30 AM 21.2 °F 5.2 °F 15.8 °F 80% 30.16 in 10.0 mi North 21.9 mph 34.5 mph N/A   Overcast
4:50 AM 21.2 °F 6.8 °F 15.8 °F 80% 30.18 in 10.0 mi North 17.3 mph 26.5 mph N/A   Overcast
5:10 AM 23.0 °F 10.6 °F 17.6 °F 80% 30.18 in 10.0 mi North 13.8 mph - N/A   Overcast
5:30 AM 23.0 °F 10.6 °F 17.6 °F 80% 30.20 in 10.0 mi NNW 13.8 mph - N/A   Overcast
5:50 AM 23.0 °F 10.6 °F 17.6 °F 80% 30.21 in 10.0 mi NNW 13.8 mph 19.6 mph N/A   Overcast
6:10 AM 23.0 °F 10.1 °F 19.4 °F 86% 30.22 in 10.0 mi NNW 15.0 mph 19.6 mph N/A   Overcast
6:30 AM 23.0 °F 11.1 °F 19.4 °F 86% 30.23 in 10.0 mi NNW 12.7 mph 19.6 mph N/A   Overcast
6:50 AM 23.0 °F 10.6 °F 19.4 °F 86% 30.23 in 10.0 mi NNW 13.8 mph - N/A   Overcast
7:10 AM 23.0 °F 10.6 °F 19.4 °F 86% 30.24 in 10.0 mi NNW 13.8 mph - N/A   Overcast
7:30 AM 23.0 °F 11.1 °F 19.4 °F 86% 30.25 in 10.0 mi NNW 12.7 mph 17.3 mph N/A   Overcast
7:50 AM 23.0 °F 12.4 °F 19.4 °F 86% 30.26 in 10.0 mi NNW 10.4 mph - N/A   Overcast
8:10 AM 23.0 °F 12.4 °F 19.4 °F 86% 30.28 in 10.0 mi NNW 10.4 mph - N/A   Overcast
8:30 AM 23.0 °F 11.7 °F 19.4 °F 86% 30.28 in 10.0 mi NNW 11.5 mph - N/A   Overcast
8:50 AM 23.0 °F 10.6 °F 17.6 °F 80% 30.30 in 10.0 mi North 13.8 mph - N/A   Overcast
9:10 AM 23.0 °F 10.6 °F 15.8 °F 74% 30.31 in 10.0 mi North 13.8 mph - N/A   Overcast
9:30 AM 23.0 °F 10.6 °F 15.8 °F 74% 30.32 in 10.0 mi North 13.8 mph - N/A   Scattered Clouds
9:50 AM 23.0 °F 9.6 °F 15.8 °F 74% 30.33 in 10.0 mi North 16.1 mph 21.9 mph N/A   Partly Cloudy
10:10 AM 23.0 °F 10.1 °F 14.0 °F 68% 30.34 in 10.0 mi North 15.0 mph 20.7 mph N/A   Mostly Cloudy
10:30 AM 23.0 °F 10.6 °F 15.8 °F 74% 30.34 in 10.0 mi North 13.8 mph - N/A   Overcast
10:50 AM 23.0 °F 10.1 °F 15.8 °F 74% 30.35 in 10.0 mi North 15.0 mph - N/A   Overcast
11:10 AM 23.0 °F 9.6 °F 15.8 °F 74% 30.35 in 10.0 mi North 16.1 mph - N/A   Overcast
11:30 AM 23.0 °F 9.2 °F 15.8 °F 74% 30.35 in 10.0 mi North 17.3 mph - N/A   Overcast
11:50 AM 24.8 °F 13.4 °F 15.8 °F 69% 30.35 in 10.0 mi NNW 12.7 mph 20.7 mph N/A   Overcast
12:10 PM 24.8 °F 13.4 °F 15.8 °F 69% 30.35 in 10.0 mi NNW 12.7 mph - N/A   Overcast
12:30 PM 24.8 °F 12.4 °F 15.8 °F 69% 30.36 in 10.0 mi NNW 15.0 mph - N/A   Overcast
12:50 PM 24.8 °F 15.3 °F 15.8 °F 69% 30.36 in 10.0 mi NNE 9.2 mph - N/A   Overcast
1:10 PM 24.8 °F 15.3 °F 15.8 °F 69% 30.36 in 10.0 mi NNW 9.2 mph - N/A   Overcast
1:30 PM 24.8 °F 14.0 °F 15.8 °F 69% 30.36 in 10.0 mi NNW 11.5 mph - N/A   Overcast
1:50 PM 24.8 °F 14.0 °F 15.8 °F 69% 30.36 in 10.0 mi NW 11.5 mph - N/A   Overcast
2:10 PM 24.8 °F 16.9 °F 15.8 °F 69% 30.35 in 10.0 mi NNW 6.9 mph - N/A   Overcast
2:30 PM 24.8 °F 15.3 °F 15.8 °F 69% 30.35 in 10.0 mi NNW 9.2 mph 16.1 mph N/A   Overcast
2:50 PM 24.8 °F 15.3 °F 15.8 °F 69% 30.36 in 10.0 mi North 9.2 mph - N/A   Mostly Cloudy
3:10 PM 23.0 °F 13.9 °F 15.8 °F 74% 30.36 in 10.0 mi North 8.1 mph - N/A   Scattered Clouds
3:30 PM 23.0 °F 15.8 °F 15.8 °F 74% 30.37 in 10.0 mi NNW 5.8 mph - N/A   Scattered Clouds
3:50 PM 24.8 °F 15.3 °F 15.8 °F 69% 30.37 in 10.0 mi NNW 9.2 mph - N/A   Clear
4:10 PM 23.0 °F 13.9 °F 14.0 °F 68% 30.37 in 10.0 mi NNW 8.1 mph - N/A   Clear
4:30 PM 23.0 °F 15.8 °F 14.0 °F 68% 30.37 in 10.0 mi NNW 5.8 mph - N/A   Clear
4:50 PM 19.4 °F 11.5 °F 14.0 °F 80% 30.37 in 10.0 mi NW 5.8 mph - N/A   Clear
5:10 PM 19.4 °F 14.3 °F 14.0 °F 80% 30.37 in 10.0 mi NW 3.5 mph - N/A   Clear
5:30 PM 19.4 °F 14.3 °F 14.0 °F 80% 30.38 in 10.0 mi West 3.5 mph - N/A   Clear
5:50 PM 19.4 °F - 14.0 °F 80% 30.39 in 10.0 mi Calm Calm - N/A   Clear
6:10 PM 17.6 °F - 14.0 °F 86% 30.39 in 10.0 mi Calm Calm - N/A   Clear
6:30 PM 15.8 °F - 14.0 °F 93% 30.40 in 10.0 mi Calm Calm - N/A   Clear
6:50 PM 17.6 °F - 14.0 °F 86% 30.40 in 10.0 mi Calm Calm - N/A   Clear
7:10 PM 15.8 °F - 12.2 °F 86% 30.40 in 10.0 mi Calm Calm - N/A   Clear
7:30 PM 14.0 °F 8.2 °F 12.2 °F 93% 30.40 in 10.0 mi ENE 3.5 mph - N/A   Clear
7:50 PM 14.0 °F - 10.4 °F 86% 30.40 in 10.0 mi Calm Calm - N/A   Clear
8:10 PM 14.0 °F - 14.0 °F 100% 30.40 in 10.0 mi Calm Calm - N/A   Clear
8:30 PM 14.0 °F 8.2 °F 14.0 °F 100% 30.40 in 10.0 mi SE 3.5 mph - N/A   Clear
8:50 PM 12.2 °F 0.7 °F 10.4 °F 92% 30.40 in 10.0 mi East 8.1 mph - N/A   Clear
9:10 PM 10.4 °F 0.8 °F 10.4 °F 100% 30.40 in 10.0 mi ESE 5.8 mph - N/A   Clear
9:30 PM 10.4 °F 0.8 °F 8.6 °F 92% 30.40 in 10.0 mi ESE 5.8 mph - N/A   Clear
9:50 PM 10.4 °F 2.2 °F 8.6 °F 92% 30.40 in 10.0 mi SSE 4.6 mph - N/A   Clear
10:10 PM 12.2 °F 4.3 °F 10.4 °F 92% 30.40 in 10.0 mi SE 4.6 mph - N/A   Clear
10:30 PM 12.2 °F 4.3 °F 8.6 °F 85% 30.40 in 10.0 mi SSE 4.6 mph - N/A   Clear
10:50 PM 12.2 °F 2.9 °F 8.6 °F 85% 30.40 in 10.0 mi SSE 5.8 mph - N/A   Clear
11:10 PM 12.2 °F 4.3 °F 8.6 °F 85% 30.41 in 10.0 mi South 4.6 mph - N/A   Clear
11:30 PM 10.4 °F -0.4 °F 10.4 °F 100% 30.41 in 10.0 mi SSE 6.9 mph - N/A   Clear
11:50 PM 12.2 °F 0.7 °F 10.4 °F 92% 30.41 in 10.0 mi SSE 8.1 mph - N/A   Clear